Location: Les Salelles
(44.4192°N, 4.1044°E)
Time: 11:06:09
(UTC+00:00)

CZ-2C R/B - Pass Details

Date: 20 January 2021
Orbit: 785 x 870 km, 98.2° (Epoch: 28 February)

Event Time Altitude Azimuth Distance (km) Brightness Sun altitude
Exits shadow 17:45:52 17° 76° (ENE) 2,071 4.1 -12.3°
Maximum altitude 17:46:56 17° 90° (E) 2,027 4.1 -12.5°
Drops below altitude 10° 17:50:31 10° 130° (SE) 2,505 4.8 -13.1°
Sets 17:53:46 0° 150° (SSE) 3,442 5.7 -13.6°
